Home   Weather   Fernando de Noronha   Past weeks

Flag for Brazil Past Weather in Fernando de Noronha, Pernambuco, Brazil — Yesterday and Last 2 Weeks

Now
77 °F

Passing clouds.


Feels Like: 78 °F
Forecast: 80 / 82 °F
Wind: 5 mph from South

Location: Natal Aeroporto

Current Time: Apr 26, 2017 at 2:38:21 am

Latest Report: Apr 26, 2017 at 2:00 am


Visibility: N/A

Pressure: 29.86 "Hg

Humidity: 94%

Dew Point: 75 °F

Location of Fernando de NoronhaLocation

Past Weather in Fernando de Noronha — Graph

°F

Fernando de Noronha Temperature Yesterday

Maximum temperature yesterday: 88 °F (at 12:00 pm)
Minimum temperature yesterday: 75 °F (at 2:00 am)
Average temperature yesterday: 80 °F

High & Low Weather Summary for the Past Weeks

 TemperatureHumidityPressure
High90 °F (Apr 16, 1:00 pm)100% (Apr 11, 7:00 am)29.98 "Hg (Apr 11, 7:00 am)
Low41 °F (Apr 13, 7:00 am)52% (Apr 16, 1:00 pm)29.80 "Hg (Apr 12, 3:00 pm)
Average80 °F82%29.88 "Hg
* Reported Apr 11 1:00 am — Apr 26 1:00 am, Fernando de Noronha, Weather by CustomWeather, © 2017

Note: Actual official high and low records may vary slightly from our data, if they occured in-between our weather recording intervals... More about our weather records

Advertising

Fernando de Noronha Weather History for the Previous 24 Hours

Scroll right to see more
 ConditionsComfort  
Time TempWeatherWind HumidityBarometerVisibility
1:00 am
Wed, Apr 26
77 °FPassing clouds.5 mph89%29.89 "HgN/A
12:00 am77 °FPassing clouds.6 mph89%29.89 "HgN/A
11:00 pm
Tue, Apr 25
77 °FPassing clouds.5 mph89%29.89 "HgN/A
10:00 pm77 °FPassing clouds.6 mph89%29.89 "HgN/A
9:00 pm79 °FPassing clouds.6 mph84%29.89 "HgN/A
8:00 pm79 °FPassing clouds.6 mph84%29.86 "HgN/A
7:00 pm81 °FPassing clouds.8 mph79%29.86 "HgN/A
6:00 pm82 °FPassing clouds.15 mph74%29.83 "HgN/A
5:00 pm84 °FScattered clouds.17 mph70%29.83 "HgN/A
4:00 pm86 °FPartly sunny.17 mph66%29.80 "HgN/A
3:00 pm86 °FScattered clouds.17 mph66%29.83 "HgN/A
2:00 pm86 °FScattered clouds.16 mph66%29.83 "HgN/A
1:00 pm88 °FScattered clouds.17 mph59%29.86 "HgN/A
12:00 pm88 °FPartly sunny.16 mph62%29.89 "HgN/A
11:00 am86 °FPartly sunny.18 mph62%29.92 "HgN/A
10:00 am84 °FPartly sunny.10 mph70%29.92 "HgN/A
9:00 am82 °FScattered clouds.10 mph79%29.89 "HgN/A
8:00 am79 °FPassing clouds.9 mph89%29.89 "HgN/A
7:00 am75 °FPassing clouds.7 mph94%29.86 "HgN/A
6:00 am75 °FPassing clouds.5 mph94%29.86 "HgN/A
5:00 am75 °FPassing clouds.3 mph94%29.86 "HgN/A
4:00 am75 °FPassing clouds.3 mph94%29.86 "HgN/A
3:00 am75 °FPassing clouds.5 mph94%29.86 "HgN/A
2:00 am75 °FPassing clouds.8 mph94%29.86 "HgN/A
Weather by CustomWeather, © 2017

See weather overviewHow to use our weather pages